Location: Grandview
(34.8900°N, 117.1058°W)
Time: 13:53:23
(UTC-07:00)

Vanguard 3 - All Passes

Search period start: 17 October 2017 00:00
Search period end: 27 October 2017 00:00
Orbit: 510 x 3263 km, 33.3° (Epoch: 17 October)

Date Brightness Start Highest point End Pass type
(mag) Time Alt. Az. Time Alt. Az. Time Alt. Az.
17 Oct - 02:03:33 10° S 02:11:36 15° SSE 02:18:14 10° ESE visible
17 Oct - 04:13:02 10° SW 04:26:08 37° SSE 04:34:10 10° E visible
17 Oct - 06:28:16 10° WSW 06:39:28 66° SSE 06:45:39 10° E visible
17 Oct - 08:44:16 10° W 08:51:44 77° S 08:56:13 10° E daylight
17 Oct - 10:58:44 10° W 11:02:54 30° SSW 11:06:13 10° SE daylight
18 Oct - 02:57:58 10° SSW 03:11:02 28° SSE 03:20:01 10° E visible
18 Oct - 05:11:46 10° SW 05:25:08 55° SSE 05:32:38 10° E visible
18 Oct - 07:28:13 10° W 07:38:02 79° S 07:43:29 10° E daylight
18 Oct - 09:43:45 10° W 09:49:51 55° SSW 09:53:51 10° ESE daylight
18 Oct - 11:59:19 10° SW 12:00:26 11° SW 12:01:31 10° SSW daylight
19 Oct - 01:44:18 10° S 01:55:35 20° SE 02:04:26 10° ESE visible
19 Oct - 03:55:31 10° SW 04:10:18 44° SSE 04:19:14 10° E visible
19 Oct - 06:11:34 10° WSW 06:23:56 72° S 06:30:39 10° E visible
19 Oct - 08:28:09 10° W 08:36:26 75° S 08:41:15 10° ESE daylight
19 Oct - 10:43:14 10° W 10:47:34 26° SSW 10:50:52 10° SSE daylight
20 Oct - 00:34:16 10° SSE 00:39:55 12° SE 00:45:07 10° ESE visible
20 Oct - 02:40:00 10° SSW 02:55:01 35° SSE 03:05:11 10° E visible
20 Oct - 04:54:41 10° WSW 05:09:24 62° SSE 05:17:36 10° E visible
20 Oct - 07:11:48 10° W 07:22:37 81° S 07:28:31 10° E daylight
20 Oct - 09:27:51 10° W 09:34:32 50° SSW 09:38:46 10° SE daylight
21 Oct - 01:25:45 10° SSW 01:39:25 25° SE 01:49:58 10° E visible
21 Oct - 03:38:06 10° SW 03:54:20 51° SSE 04:04:11 10° E visible
21 Oct - 05:54:49 10° WSW 06:08:20 77° S 06:15:38 10° E visible
21 Oct - 08:11:55 10° W 08:21:05 72° SSW 08:26:16 10° ESE daylight
21 Oct - 10:27:39 10° W 10:32:08 23° SW 10:35:29 10° SSE daylight
22 Oct - 00:13:53 10° S 00:23:40 16° SE 00:32:20 10° ESE visible
22 Oct - 02:22:15 10° SSW 02:38:50 41° SSE 02:50:08 10° E visible
22 Oct - 04:37:38 10° WSW 04:53:33 69° SSE 05:02:30 10° E visible
22 Oct - 06:55:16 10° W 07:07:07 82° S 07:13:31 10° E daylight
22 Oct - 09:11:49 10° W 09:19:08 46° SSW 09:23:40 10° SE daylight
23 Oct - 01:07:38 10° SSW 01:23:05 30° SE 01:35:04 10° E visible
23 Oct - 03:20:46 10° SW 03:38:15 58° SSE 03:48:59 10° E visible
23 Oct - 05:38:00 10° WSW 05:52:38 81° S 06:00:34 10° E visible
23 Oct - 07:55:34 10° W 08:05:38 69° SSW 08:11:15 10° ESE daylight
23 Oct - 10:12:01 10° W 10:16:38 21° SW 10:20:03 10° S daylight
23 Oct - 23:54:56 10° S 00:07:15 20° SE 00:18:08 10° E visible
24 Oct - 02:04:43 10° SW 02:22:31 47° SSE 02:34:54 10° E visible
24 Oct - 04:20:35 10° WSW 04:37:36 74° SSE 04:47:20 10° E visible
24 Oct - 06:38:39 10° W 06:51:34 81° S 06:58:30 10° E visible
24 Oct - 08:55:41 10° W 09:03:40 42° SSW 09:08:30 10° SE daylight
24 Oct - 22:47:59 10° SE 22:51:33 11° SE 22:55:03 10° SE night (unlit)
25 Oct - 00:49:51 10° SSW 01:06:34 35° SE 01:19:53 10° E visible
25 Oct - 03:03:33 10° SW 03:22:03 64° SSE 03:33:42 10° E visible
25 Oct - 05:21:11 10° W 05:36:52 83° S 05:45:27 10° E visible
25 Oct - 07:39:06 10° W 07:50:07 65° SSW 07:56:11 10° ESE daylight
25 Oct - 09:56:19 10° W 10:01:01 19° SW 10:04:30 10° S daylight
25 Oct - 23:36:40 10° S 23:50:41 24° SE 00:03:18 10° E visible
26 Oct - 01:47:21 10° SW 02:06:04 52° SSE 02:19:30 10° E visible
26 Oct - 04:03:36 10° WSW 04:21:33 78° S 04:32:05 10° E visible
26 Oct - 06:21:57 10° W 06:35:54 80° S 06:43:25 10° ESE visible
26 Oct - 08:39:27 10° W 08:48:04 39° SSW 08:53:16 10° SE daylight
26 Oct - 22:26:49 10° SSE 22:35:01 14° SE 22:43:07 10° ESE night (unlit)
